Weather History for KBMI - February, 2014

Change the Weather History Date:

Sunday, February 16, 2014

  Actual Average Record
Temperature  
Mean Temperature 16 °F -  
Max Temperature 22 °F 25 °F 62 °F (2006)
Min Temperature 10 °F 8 °F -4 °F (2007)
Degree Days  
Heating Degree Days 49    
Moisture  
Dew Point 12 °F    
Average Humidity 80    
Maximum Humidity 88    
Minimum Humidity 65    
Precipitation  
Precipitation 0.00 in - - ()
Sea Level Pressure  
Sea Level Pressure 30.21 in    
Wind  
Wind Speed 11 mph (NNW)    
Max Wind Speed 20 mph    
Max Gust Speed 25 mph    
Visibility 7 miles    
Events      
Averages and records for this station are not official NWS values.
T = Trace of Precipitation, MM = Missing Value Source: NWS Daily Summary

Daily Weather History Graph

Daily Weather History Graph

Search for Another Location

Airport or City:

Trip Planner

Search our weather history database for the weather conditions in past years. The results will help you decide how hot, cold, wet, or windy it might be!

Date:

Astronomy

Feb. 16, 2014 Rise Set
Actual Time 6:47 AM CST 5:32 PM CST
Civil Twilight 6:19 AM CST 6:00 PM CST
Nautical Twilight 5:48 AM CST 6:31 PM CST
Astronomical Twilight 5:16 AM CST 7:03 PM CST
Moon 7:29 PM CST (2/16) 7:17 AM CST (2/16)
Length of Visible Light 11h 40m
Length of Day
10h 44m
Full, 97% of the Moon is Illuminated
Feb 16
Full
Feb 22
Last Quarter
Mar 1
New
Mar 8
First Quarter
Mar 16
Full

Hourly Weather History & Observations

Time (CST) Temp. Windchill Dew Point Humidity Pressure Visibility Wind Dir Wind Speed Gust Speed Precip Events Conditions
12:56 AM 20.1 °F 9.5 °F 16.2 °F 85% 30.03 in 8.0 mi SW 9.2 mph - N/A   Overcast
1:56 AM 21.0 °F 10.6 °F 17.1 °F 85% 30.02 in 7.0 mi WSW 9.2 mph - N/A   Overcast
2:56 AM 21.0 °F 11.4 °F 17.1 °F 85% 30.04 in 8.0 mi West 8.1 mph - N/A   Overcast
3:56 AM 21.0 °F 10.6 °F 16.2 °F 81% 30.04 in 8.0 mi NW 9.2 mph - N/A   Mostly Cloudy
4:56 AM 18.1 °F 5.6 °F 13.1 °F 81% 30.09 in 8.0 mi NW 11.5 mph - N/A   Scattered Clouds
5:56 AM 15.1 °F 0.5 °F 11.1 °F 84% 30.12 in 8.0 mi NW 13.8 mph - N/A   Clear
6:21 AM 15.8 °F 0.9 °F 12.2 °F 86% 30.05 in 7.0 mi NW 15.0 mph - N/A   Mostly Cloudy
6:56 AM 16.2 °F 1.3 °F 12.0 °F 84% 30.15 in 6.0 mi NNW 15.0 mph - N/A   Overcast
7:56 AM 17.1 °F 3.0 °F 12.0 °F 81% 30.19 in 5.0 mi NNW 13.8 mph - N/A   Haze
8:35 AM 17.6 °F 2.2 °F 12.2 °F 79% 30.12 in 5.0 mi NNW 17.3 mph - N/A   Haze
8:56 AM 17.1 °F 0.6 °F 12.0 °F 81% 30.21 in 4.0 mi NNW 19.6 mph 25.3 mph N/A   Haze
9:04 AM 17.6 °F 1.7 °F 12.2 °F 79% 30.12 in 4.0 mi North 18.4 mph - N/A   Haze
9:22 AM 17.6 °F 2.7 °F 12.2 °F 79% 30.14 in 5.0 mi NNW 16.1 mph - N/A   Haze
9:28 AM 17.6 °F 2.7 °F 12.2 °F 79% 30.14 in 5.0 mi NNW 16.1 mph - N/A   Haze
9:56 AM 18.1 °F 3.9 °F 12.0 °F 77% 30.24 in 6.0 mi NNW 15.0 mph - N/A   Haze
10:56 AM 18.1 °F 4.4 °F 12.0 °F 77% 30.27 in 6.0 mi North 13.8 mph - N/A   Haze
11:56 AM 19.0 °F 5.6 °F 12.0 °F 74% 30.27 in 9.0 mi North 13.8 mph - N/A   Clear
12:56 PM 20.1 °F 7.5 °F 12.0 °F 71% 30.28 in 9.0 mi NNW 12.7 mph - N/A   Clear
1:56 PM 20.1 °F 10.3 °F 12.0 °F 71% 30.28 in 10.0 mi NNW 8.1 mph - N/A   Clear
2:56 PM 22.1 °F - 12.0 °F 65% 30.28 in 10.0 mi Calm Calm - N/A   Clear
3:56 PM 21.0 °F 14.6 °F 11.1 °F 66% 30.29 in 10.0 mi NW 4.6 mph - N/A   Clear
4:56 PM 17.1 °F 10.0 °F 10.0 °F 74% 30.32 in 9.0 mi NNE 4.6 mph - N/A   Clear
5:56 PM 14.0 °F 6.5 °F 8.1 °F 77% 30.33 in 9.0 mi NE 4.6 mph - N/A   Clear
6:56 PM 11.1 °F 0.4 °F 7.2 °F 84% 30.34 in 7.0 mi ENE 6.9 mph - N/A   Clear
7:56 PM 10.0 °F 0.4 °F 7.2 °F 88% 30.34 in 6.0 mi ENE 5.8 mph - N/A   Clear
8:56 PM 12.0 °F 4.1 °F 9.1 °F 88% 30.33 in 7.0 mi SE 4.6 mph - N/A   Clear
9:56 PM 13.1 °F 0.9 °F 9.1 °F 84% 30.32 in 7.0 mi ESE 9.2 mph - N/A   Clear
10:56 PM 14.0 °F 6.5 °F 10.0 °F 84% 30.33 in 7.0 mi SSE 4.6 mph - N/A   Partly Cloudy
11:56 PM 15.1 °F 1.1 °F 10.0 °F 80% 30.30 in 7.0 mi SE 12.7 mph - N/A   Scattered Clouds